Penn Yan, NY
on Friday, December 8, 2017

Friday
       
Previous Day Next Day
Daily Summary
 ActualAverage (KITH)Record (KITH)
Temperature
Mean Temperature °F °C °F °C  
Max Temperature 30°F -1°C 38°F 3°C 62°F 16°C (1951)
Min Temperature 26°F -3°C 23°F -5°C -3°F -19°C (1970)
Degree Days
Heating Degree Days 37    
Moisture
Dew Point 14°F -10°C   
Average Humidity 54    
Maximum Humidity 72    
Minimum Humidity 45    
Precipitation
Precipitation 0.00 in / 0.00 cm in / cm in / cm ()
Wind
Wind Speed 9 mph / 14 km/h   
Max Wind Speed 17 mph / 27 km/h   
Max Gust Speed 23 mph / 37 km/h   
Visibility 10 miles / 16 kilometers   
Events     
Averages and records for this station are not official NWS values.
Key: T is trace of precipitation, MM is missing value
Source: NWS Daily Summary
Seasonal Weather Averages
Time(EST)TemperatureDew PointHumidity Pressure Visibility Wind DirectionWind SpeedGust SpeedPrecipitationEvents Conditions
12:53 AM 28.0°F -2.2°C 19.9°F -6.7°C 72% 30.00 in / 1015.8 hPa 10.0 miles / 16.1 kilometers SSW 3.5 mph / 5.6 km/h - 0.00 in / 0.0 cm   Overcast
1:53 AM 28.9°F -1.7°C 19.9°F -6.7°C 69% 29.99 in / 1015.4 hPa 10.0 miles / 16.1 kilometers SW 6.9 mph / 11.1 km/h - N/A   Overcast
2:53 AM 28.9°F -1.7°C 19.9°F -6.7°C 69% 30.00 in / 1015.7 hPa 10.0 miles / 16.1 kilometers SW 8.1 mph / 13.0 km/h - 0.00 in / 0.0 cm   Overcast
3:53 AM 30.0°F -1.1°C 18.0°F -7.8°C 61% 30.00 in / 1015.8 hPa 10.0 miles / 16.1 kilometers SW 10.4 mph / 16.7 km/h - N/A   Overcast
4:53 AM 28.9°F -1.7°C 17.1°F -8.3°C 61% 30.00 in / 1015.7 hPa 10.0 miles / 16.1 kilometers SSW 13.8 mph / 22.2 km/h - N/A   Overcast
5:53 AM 28.0°F -2.2°C 16.0°F -8.9°C 61% 30.00 in / 1015.9 hPa 10.0 miles / 16.1 kilometers SSW 9.2 mph / 14.8 km/h - N/A   Mostly Cloudy
6:53 AM 27.0°F -2.8°C 15.1°F -9.4°C 61% 30.00 in / 1015.9 hPa 10.0 miles / 16.1 kilometers SSW 11.5 mph / 18.5 km/h - N/A   Clear
7:53 AM 26.1°F -3.3°C 14.0°F -10.0°C 60% 30.01 in / 1016.0 hPa 10.0 miles / 16.1 kilometers SSW 10.4 mph / 16.7 km/h - N/A   Mostly Cloudy
8:53 AM 26.1°F -3.3°C 14.0°F -10.0°C 60% 30.02 in / 1016.5 hPa 10.0 miles / 16.1 kilometers SW 11.5 mph / 18.5 km/h - N/A   Clear
9:53 AM 27.0°F -2.8°C 12.9°F -10.6°C 56% 30.02 in / 1016.6 hPa 10.0 miles / 16.1 kilometers SSW 12.7 mph / 20.4 km/h - N/A   Clear
10:53 AM 28.9°F -1.7°C 14.0°F -10.0°C 54% 30.01 in / 1016.0 hPa 10.0 miles / 16.1 kilometers South 12.7 mph / 20.4 km/h - N/A   Clear
11:53 AM 30.9°F -0.6°C 14.0°F -10.0°C 50% 29.99 in / 1015.6 hPa 10.0 miles / 16.1 kilometers SSW 13.8 mph / 22.2 km/h - N/A   Partly Cloudy
12:53 PM 30.9°F -0.6°C 15.1°F -9.4°C 52% 29.98 in / 1015.0 hPa 10.0 miles / 16.1 kilometers SW 17.3 mph / 27.8 km/h 23.0 mph / 37.0 km/h N/A   Scattered Clouds
1:53 PM 30.9°F -0.6°C 12.0°F -11.1°C 46% 29.94 in / 1013.8 hPa 10.0 miles / 16.1 kilometers South 12.7 mph / 20.4 km/h - N/A   Clear
2:53 PM 30.9°F -0.6°C 12.0°F -11.1°C 46% 29.94 in / 1013.8 hPa 10.0 miles / 16.1 kilometers South 10.4 mph / 16.7 km/h - N/A   Clear
3:53 PM 30.0°F -1.1°C 10.9°F -11.7°C 45% 29.92 in / 1013.1 hPa 10.0 miles / 16.1 kilometers South 13.8 mph / 22.2 km/h - N/A   Clear
4:53 PM 28.0°F -2.2°C 10.0°F -12.2°C 47% 29.95 in / 1014.0 hPa 10.0 miles / 16.1 kilometers South 9.2 mph / 14.8 km/h - N/A   Clear
5:53 PM 28.0°F -2.2°C 10.0°F -12.2°C 47% 29.94 in / 1013.6 hPa 10.0 miles / 16.1 kilometers South 9.2 mph / 14.8 km/h - N/A   Clear
6:53 PM 28.9°F -1.7°C 10.0°F -12.2°C 45% 29.96 in / 1014.4 hPa 10.0 miles / 16.1 kilometers SSW 12.7 mph / 20.4 km/h 20.7 mph / 33.3 km/h N/A   Clear
7:53 PM 28.0°F -2.2°C 10.0°F -12.2°C 47% 29.96 in / 1014.4 hPa 10.0 miles / 16.1 kilometers SSW 9.2 mph / 14.8 km/h - N/A   Clear
8:53 PM 28.0°F -2.2°C 9.0°F -12.8°C 45% 29.96 in / 1014.4 hPa 10.0 miles / 16.1 kilometers SSW 6.9 mph / 11.1 km/h - N/A   Clear
9:53 PM 28.0°F -2.2°C 10.0°F -12.2°C 47% 29.96 in / 1014.6 hPa 10.0 miles / 16.1 kilometers SSW 10.4 mph / 16.7 km/h - N/A   Clear
10:53 PM 27.0°F -2.8°C 10.9°F -11.7°C 51% 29.94 in / 1013.9 hPa 10.0 miles / 16.1 kilometers SSW 10.4 mph / 16.7 km/h - N/A   Clear
11:53 PM 27.0°F -2.8°C 10.9°F -11.7°C 51% 29.95 in / 1014.2 hPa 10.0 miles / 16.1 kilometers SSW 11.5 mph / 18.5 km/h 17.3 mph / 27.8 km/h N/A   Mostly Cloudy